Weather History for Hillsdale, MI

Change the Weather History Date:

Saturday, July 20, 2013

  Actual Average Record
Temperature  
Mean Temperature 76 °F -  
Max Temperature 84 °F 82 °F 95 °F (2011)
Min Temperature 67 °F 61 °F 43 °F (1965)
Cooling Degree Days 10    
Growing Degree Days 26 (Base 50)    
Moisture  
Dew Point 68 °F    
Average Humidity 76    
Maximum Humidity 100    
Minimum Humidity 45    
Precipitation  
Precipitation 0.00 in - - ()
Sea Level Pressure  
Sea Level Pressure 29.87 in    
Wind  
Wind Speed 6 mph (NW)    
Max Wind Speed 14 mph    
Max Gust Speed 26 mph    
Visibility 9 miles    
Events Rain    
Averages and records for this station are not official NWS values.
T = Trace of Precipitation, MM = Missing Value Source: NWS Daily Summary

Daily Weather History Graph

Daily Weather History Graph

Search for Another Location

Airport:

Trip Planner

Search our weather history database for the weather conditions in past years. The results will help you decide how hot, cold, wet, or windy it might be!

Date:

Astronomy

Jul. 20, 2013 Rise Set
Actual Time 6:20 AM EDT 9:08 PM EDT
Civil Twilight 5:48 AM EDT 9:40 PM EDT
Nautical Twilight 5:06 AM EDT 10:21 PM EDT
Astronomical Twilight 4:19 AM EDT 11:09 PM EDT
Moon 7:10 PM EDT (7/20) 3:59 AM EDT (7/20)
Length of Visible Light 15h 52m
Length of Day
14h 47m
Waxing Gibbous, 93% of the Moon is Illuminated
Jul 20
Waxing Gibbous
Jul 22
Full
Jul 29
Last Quarter
Aug 6
New
Aug 14
First Quarter

Hourly Weather History & Observations

Time (EDT) Temp. Heat Index Dew Point Humidity Pressure Visibility Wind Dir Wind Speed Gust Speed Precip Events Conditions
12:15 AM 82.8 °F 89.5 °F 74.5 °F 76% 29.81 in 10.0 mi SW 11.5 mph 18.4 mph N/A   Mostly Cloudy
12:34 AM 82.8 °F 89.8 °F 74.8 °F 77% 29.83 in 10.0 mi WNW 9.2 mph 18.4 mph N/A   Mostly Cloudy
12:55 AM 78.1 °F - 67.3 °F 69% 29.83 in 10.0 mi NW 10.4 mph 19.6 mph N/A   Overcast
1:14 AM 77.4 °F - 68.0 °F 73% 29.83 in 10.0 mi NNW 10.4 mph - N/A   Mostly Cloudy
1:34 AM 75.0 °F - 69.3 °F 82% 29.83 in 10.0 mi NNW 13.8 mph 26.5 mph N/A   Overcast
1:55 AM 72.0 °F - 70.5 °F 95% 29.82 in 3.0 mi North 11.5 mph 19.6 mph N/A Rain Light Rain
2:14 AM 72.0 °F - 70.9 °F 96% 29.84 in 10.0 mi NW 10.4 mph - N/A   Overcast
2:35 AM 72.0 °F - 71.2 °F 98% 29.82 in 5.0 mi NW 10.4 mph 21.9 mph N/A Rain Light Rain
2:55 AM 72.0 °F - 71.2 °F 98% 29.83 in 10.0 mi SW 5.8 mph - N/A Rain Light Rain
3:14 AM 72.3 °F - 71.8 °F 98% 29.82 in 10.0 mi West 3.5 mph - N/A   Overcast
3:35 AM 72.3 °F - 71.8 °F 98% 29.80 in 10.0 mi WSW 3.5 mph - N/A   Overcast
3:55 AM 72.3 °F - 72.1 °F 99% 29.79 in 10.0 mi West 4.6 mph - N/A   Scattered Clouds
4:14 AM 72.9 °F - 72.7 °F 99% 29.80 in 10.0 mi SW 6.9 mph - N/A   Scattered Clouds
4:35 AM 73.0 °F - 72.7 °F 99% 29.77 in 10.0 mi West 4.6 mph - N/A   Scattered Clouds
4:54 AM 73.0 °F - 72.7 °F 99% 29.79 in 10.0 mi West 3.5 mph - N/A   Scattered Clouds
5:14 AM 73.6 °F - 73.2 °F 99% 29.80 in 10.0 mi WSW 3.5 mph - N/A   Mostly Cloudy
5:35 AM 73.6 °F - 73.2 °F 99% 29.80 in 10.0 mi West 3.5 mph - N/A   Mostly Cloudy
5:54 AM 73.8 °F - 73.6 °F 99% 29.81 in 7.0 mi West 3.5 mph - N/A   Mostly Cloudy
6:14 AM 73.6 °F - 73.4 °F 99% 29.81 in 7.0 mi Calm Calm - N/A   Overcast
6:34 AM 73.0 °F - 73.0 °F 100% 29.82 in 5.0 mi West 3.5 mph - N/A   Mostly Cloudy
6:54 AM 72.9 °F - 72.9 °F 100% 29.83 in 5.0 mi Calm Calm - N/A   Scattered Clouds
7:15 AM 73.6 °F - 73.6 °F 100% 29.84 in 5.0 mi Calm Calm - N/A   Mostly Cloudy
7:34 AM 73.8 °F - 73.6 °F 99% 29.84 in 7.0 mi NNW 4.6 mph - N/A   Overcast
7:55 AM 73.9 °F - 73.6 °F 99% 29.85 in 7.0 mi North 3.5 mph - N/A   Overcast
8:15 AM 73.9 °F - 73.6 °F 99% 29.85 in 7.0 mi NNW 4.6 mph - N/A   Overcast
8:34 AM 74.1 °F - 73.6 °F 98% 29.86 in 7.0 mi North 4.6 mph - N/A   Overcast
8:55 AM 75.2 °F - 73.9 °F 96% 29.86 in 7.0 mi NNW 3.5 mph - N/A   Mostly Cloudy
9:15 AM 75.7 °F - 73.4 °F 92% 29.87 in 10.0 mi Calm Calm - N/A   Overcast
9:34 AM 75.7 °F - 73.2 °F 92% 29.87 in 10.0 mi North 3.5 mph - N/A   Overcast
9:55 AM 75.6 °F - 72.9 °F 91% 29.88 in 10.0 mi North 3.5 mph - N/A   Overcast
10:14 AM 76.5 °F - 71.2 °F 84% 29.88 in 10.0 mi NNE 5.8 mph - N/A   Overcast
10:35 AM 76.6 °F - 71.6 °F 84% 29.88 in 10.0 mi NE 4.6 mph - N/A   Mostly Cloudy
10:55 AM 77.2 °F - 71.8 °F 83% 29.89 in 10.0 mi North 3.5 mph - N/A   Scattered Clouds
11:14 AM 78.3 °F - 71.6 °F 80% 29.89 in 10.0 mi Calm Calm - N/A   Clear
11:35 AM 79.7 °F - 70.9 °F 74% 29.89 in 10.0 mi Calm Calm - N/A   Scattered Clouds
11:54 AM 80.8 °F 84.6 °F 71.1 °F 72% 29.89 in 10.0 mi Calm Calm - N/A   Scattered Clouds
12:15 PM 80.8 °F 83.9 °F 69.4 °F 68% 29.89 in 10.0 mi North 3.5 mph - N/A   Scattered Clouds
12:35 PM 80.2 °F 83.5 °F 70.2 °F 71% 29.89 in 10.0 mi NNW 3.5 mph - N/A   Mostly Cloudy
12:54 PM 81.3 °F 83.8 °F 67.3 °F 62% 29.89 in 10.0 mi North 3.5 mph - N/A   Scattered Clouds
1:15 PM 82.0 °F 84.5 °F 66.7 °F 60% 29.89 in 10.0 mi North 4.6 mph - N/A   Scattered Clouds
1:35 PM 82.9 °F 85.0 °F 65.8 °F 56% 29.89 in 10.0 mi NW 6.9 mph - N/A   Clear
1:54 PM 83.1 °F 84.8 °F 65.1 °F 54% 29.89 in 10.0 mi NNW 6.9 mph - N/A   Scattered Clouds
2:15 PM 82.0 °F 83.8 °F 64.9 °F 56% 29.89 in 10.0 mi NNW 6.9 mph - N/A   Scattered Clouds
2:34 PM 83.7 °F 84.9 °F 63.9 °F 51% 29.89 in 10.0 mi NNW 8.1 mph - N/A   Scattered Clouds
2:54 PM 83.5 °F 84.3 °F 62.6 °F 49% 29.89 in 10.0 mi NNW 9.2 mph - N/A   Scattered Clouds
3:15 PM 83.8 °F 84.5 °F 62.1 °F 48% 29.88 in 10.0 mi NNW 9.2 mph - N/A   Clear
3:34 PM 82.8 °F 83.4 °F 62.1 °F 49% 29.88 in 10.0 mi NNW 6.9 mph - N/A   Clear
3:54 PM 82.2 °F 82.6 °F 59.9 °F 47% 29.88 in 10.0 mi NW 5.8 mph - N/A   Clear
4:15 PM 84.0 °F 84.2 °F 60.3 °F 45% 29.88 in 10.0 mi NW 9.2 mph - N/A   Scattered Clouds
4:34 PM 83.7 °F 83.8 °F 60.4 °F 45% 29.89 in 10.0 mi NNW 9.2 mph - N/A   Clear
4:55 PM 83.5 °F 84.1 °F 62.1 °F 48% 29.89 in 10.0 mi NNW 8.1 mph - N/A   Scattered Clouds
5:15 PM 83.7 °F 84.1 °F 61.5 °F 47% 29.89 in 10.0 mi NNW 6.9 mph - N/A   Clear
5:34 PM 83.7 °F 84.3 °F 62.1 °F 48% 29.88 in 10.0 mi NW 9.2 mph - N/A   Clear
5:55 PM 83.5 °F 83.9 °F 61.5 °F 47% 29.89 in 10.0 mi WNW 8.1 mph - N/A   Scattered Clouds
6:15 PM 83.1 °F 83.7 °F 61.7 °F 48% 29.89 in 10.0 mi WNW 5.8 mph - N/A   Scattered Clouds
6:34 PM 82.9 °F 83.5 °F 61.3 °F 48% 29.89 in 10.0 mi NW 10.4 mph - N/A   Scattered Clouds
6:55 PM 81.9 °F 82.3 °F 60.3 °F 48% 29.89 in 10.0 mi NNW 8.1 mph - N/A   Clear
7:14 PM 82.0 °F 82.5 °F 60.6 °F 48% 29.89 in 10.0 mi NNW 5.8 mph - N/A   Clear
7:34 PM 81.7 °F 82.6 °F 61.7 °F 51% 29.89 in 10.0 mi NNW 4.6 mph - N/A   Clear
7:55 PM 81.0 °F 82.2 °F 63.0 °F 54% 29.90 in 10.0 mi Calm Calm - N/A   Clear
8:14 PM 80.1 °F 81.5 °F 63.1 °F 56% 29.90 in 10.0 mi Calm Calm - N/A   Clear
8:34 PM 77.9 °F - 64.9 °F 64% 29.91 in 10.0 mi NNW 3.5 mph - N/A   Clear
8:55 PM 76.5 °F - 64.2 °F 66% 29.91 in 10.0 mi NNW 3.5 mph - N/A   Clear
9:14 PM 75.0 °F - 63.7 °F 68% 29.92 in 10.0 mi North 4.6 mph - N/A   Clear
9:35 PM 74.8 °F - 61.7 °F 64% 29.93 in 10.0 mi NNE 3.5 mph - N/A   Clear
9:55 PM 74.3 °F - 61.5 °F 64% 29.94 in 10.0 mi NNE 3.5 mph - N/A   Clear
10:14 PM 73.9 °F - 61.7 °F 65% 29.95 in 10.0 mi Calm Calm - N/A   Clear
10:35 PM 70.2 °F - 67.6 °F 92% 29.95 in 10.0 mi Calm Calm - N/A   Clear
10:55 PM 70.9 °F - 65.5 °F 83% 29.96 in 10.0 mi Calm Calm - N/A   Clear
11:14 PM 68.4 °F - 66.9 °F 95% 29.95 in 10.0 mi Calm Calm - N/A   Clear
11:35 PM 67.8 °F - 67.1 °F 98% 29.96 in 10.0 mi Calm Calm - N/A   Clear
11:55 PM 67.5 °F - 66.7 °F 98% 29.95 in 5.0 mi Calm Calm - N/A   Clear